Wetterdaten: Woche 22.01.18 - 28.01.18 (KW4)
Datum Zeit Temp. I. Temp. A. Feuchte I. Feuchte A. Luftdruck Regen Wind Richtung Sonnenschein UV Solar Taupunkt Windchill Windben
22.01.2018 00:00 22,5 C -4,3 C 62 % 94 % 1017,6 hPa 0,0 l/m 0,5 km/h (0 Bft) NO 0,00 h 0,0 UV-I 0 W/m -5,2 C -4,3 C 1,2 km/h (1 Bft)
22.01.2018 01:00 22,3 C -4,7 C 62 % 95 % 1017,3 hPa 0,0 l/m 0,9 km/h (0 Bft) O-NO 0,00 h 0,0 UV-I 0 W/m -5,4 C -4,7 C 2,0 km/h (1 Bft)
22.01.2018 02:00 22,2 C -3,6 C 62 % 95 % 1016,6 hPa 0,0 l/m 3,0 km/h (1 Bft) O 0,00 h 0,0 UV-I 0 W/m -4,2 C -3,6 C 5,2 km/h (1 Bft)
22.01.2018 03:00 22,1 C -3,0 C 63 % 96 % 1015,9 hPa 0,0 l/m 2,1 km/h (1 Bft) O-NO 0,00 h 0,0 UV-I 0 W/m -3,6 C -3,0 C 3,9 km/h (1 Bft)
22.01.2018 04:00 22,1 C -3,0 C 63 % 95 % 1014,9 hPa 0,0 l/m 0,0 km/h (0 Bft) N 0,00 h 0,0 UV-I 0 W/m -3,7 C -3,0 C 0,0 km/h (0 Bft)
22.01.2018 05:00 22,1 C -2,7 C 63 % 95 % 1014,3 hPa 0,0 l/m 0,9 km/h (0 Bft) O 0,00 h 0,0 UV-I 0 W/m -3,4 C -2,7 C 2,2 km/h (1 Bft)
22.01.2018 06:00 22,0 C -2,3 C 63 % 95 % 1013,7 hPa 0,0 l/m 2,8 km/h (1 Bft) O-SO 0,00 h 0,0 UV-I 0 W/m -3,0 C -2,3 C 5,2 km/h (1 Bft)
22.01.2018 07:00 21,9 C -1,9 C 62 % 94 % 1013,2 hPa 0,0 l/m 4,7 km/h (1 Bft) SO 0,00 h 0,0 UV-I 0 W/m -2,8 C -2,1 C 8,3 km/h (2 Bft)
22.01.2018 08:00 22,1 C -1,6 C 61 % 92 % 1013,0 hPa 0,0 l/m 5,7 km/h (1 Bft) SO 0,00 h 0,0 UV-I 15 W/m -2,7 C -2,1 C 9,4 km/h (2 Bft)
22.01.2018 09:00 22,2 C -1,3 C 61 % 91 % 1012,9 hPa 0,0 l/m 4,2 km/h (1 Bft) SO 0,00 h 0,0 UV-I 44 W/m -2,6 C -1,4 C 7,2 km/h (2 Bft)
22.01.2018 10:00 22,4 C -1,1 C 60 % 92 % 1012,5 hPa 0,0 l/m 4,9 km/h (1 Bft) SO 0,00 h 0,5 UV-I 80 W/m -2,2 C -1,6 C 8,2 km/h (2 Bft)
22.01.2018 11:00 22,6 C -0,6 C 60 % 91 % 1011,5 hPa 0,0 l/m 6,5 km/h (2 Bft) SO 0,13 h 0,7 UV-I 124 W/m -1,9 C -1,7 C 11,0 km/h (2 Bft)
22.01.2018 12:00 22,7 C -0,2 C 60 % 91 % 1010,8 hPa 0,0 l/m 2,8 km/h (1 Bft) SO 0,17 h 0,6 UV-I 107 W/m -1,4 C -0,3 C 5,2 km/h (1 Bft)
22.01.2018 13:00 22,8 C -0,0 C 62 % 94 % 1010,2 hPa 0,0 l/m 1,2 km/h (1 Bft) SO 0,00 h 0,5 UV-I 79 W/m -0,9 C -0,0 C 2,8 km/h (1 Bft)
22.01.2018 14:00 22,9 C 0,0 C 62 % 94 % 1010,3 hPa 0,2 l/m 3,2 km/h (1 Bft) S 0,00 h 0,0 UV-I 40 W/m -0,8 C -0,0 C 6,1 km/h (2 Bft)
22.01.2018 15:00 22,9 C 0,1 C 62 % 95 % 1010,5 hPa 0,0 l/m 3,3 km/h (1 Bft) S 0,00 h 0,0 UV-I 29 W/m -0,7 C 0,1 C 5,7 km/h (1 Bft)
22.01.2018 16:00 22,9 C 0,1 C 61 % 95 % 1010,5 hPa 0,0 l/m 1,6 km/h (1 Bft) S-SO 0,00 h 0,0 UV-I 10 W/m -0,6 C 0,1 C 3,2 km/h (1 Bft)
22.01.2018 17:00 23,2 C 0,0 C 63 % 95 % 1011,0 hPa 0,0 l/m 0,7 km/h (0 Bft) S 0,00 h 0,0 UV-I 0 W/m -0,6 C 0,0 C 1,7 km/h (1 Bft)
22.01.2018 18:00 23,1 C 0,2 C 63 % 96 % 1011,7 hPa 0,0 l/m 1,6 km/h (1 Bft) SW 0,00 h 0,0 UV-I 0 W/m -0,4 C 0,2 C 4,3 km/h (1 Bft)
22.01.2018 19:00 22,8 C 0,3 C 61 % 97 % 1012,4 hPa 0,0 l/m 0,8 km/h (0 Bft) W-SW 0,00 h 0,0 UV-I 0 W/m -0,2 C 0,3 C 2,6 km/h (1 Bft)
22.01.2018 20:00 22,9 C 0,5 C 62 % 97 % 1013,2 hPa 0,0 l/m 0,9 km/h (0 Bft) W-SW 0,00 h 0,0 UV-I 0 W/m 0,0 C 0,5 C 2,2 km/h (1 Bft)
22.01.2018 21:00 23,1 C 0,6 C 63 % 97 % 1014,0 hPa 0,0 l/m 0,2 km/h (0 Bft) S-SW 0,00 h 0,0 UV-I 0 W/m 0,2 C 0,6 C 0,7 km/h (0 Bft)
22.01.2018 22:00 23,0 C 0,7 C 63 % 97 % 1014,7 hPa 0,0 l/m 1,3 km/h (1 Bft) SW 0,00 h 0,0 UV-I 0 W/m 0,3 C 0,7 C 3,5 km/h (1 Bft)
22.01.2018 23:00 23,0 C 1,0 C 64 % 97 % 1015,7 hPa 0,0 l/m 2,3 km/h (1 Bft) W 0,00 h 0,0 UV-I 0 W/m 0,6 C 1,0 C 5,3 km/h (1 Bft)
23.01.2018 00:00 22,9 C 1,4 C 64 % 97 % 1016,8 hPa 0,0 l/m 6,0 km/h (2 Bft) W 0,00 h 0,0 UV-I 0 W/m 1,0 C 0,9 C 11,1 km/h (2 Bft)
23.01.2018 01:00 22,6 C 1,6 C 65 % 97 % 1017,6 hPa 0,0 l/m 5,3 km/h (1 Bft) W 0,00 h 0,0 UV-I 0 W/m 1,1 C 1,0 C 9,9 km/h (2 Bft)
23.01.2018 02:00 22,6 C 1,5 C 65 % 96 % 1018,7 hPa 0,0 l/m 2,8 km/h (1 Bft) W 0,00 h 0,0 UV-I 0 W/m 1,0 C 1,5 C 6,3 km/h (2 Bft)
23.01.2018 03:00 22,4 C 1,7 C 66 % 96 % 1019,8 hPa 0,0 l/m 3,7 km/h (1 Bft) W-SW 0,00 h 0,0 UV-I 0 W/m 1,1 C 1,6 C 7,4 km/h (2 Bft)
23.01.2018 04:00 22,4 C 1,7 C 66 % 96 % 1020,5 hPa 0,2 l/m 5,8 km/h (2 Bft) W-SW 0,00 h 0,0 UV-I 0 W/m 1,1 C 1,0 C 10,6 km/h (2 Bft)
23.01.2018 05:00 22,3 C 1,7 C 66 % 96 % 1021,0 hPa 0,0 l/m 4,7 km/h (1 Bft) W-SW 0,00 h 0,0 UV-I 0 W/m 1,2 C 1,3 C 9,3 km/h (2 Bft)
23.01.2018 06:00 22,3 C 1,9 C 66 % 97 % 1021,7 hPa 0,0 l/m 4,3 km/h (1 Bft) W-SW 0,00 h 0,0 UV-I 0 W/m 1,4 C 1,6 C 8,5 km/h (2 Bft)
23.01.2018 07:00 22,4 C 2,1 C 65 % 97 % 1022,7 hPa 0,0 l/m 1,9 km/h (1 Bft) W-SW 0,00 h 0,0 UV-I 0 W/m 1,6 C 2,1 C 4,4 km/h (1 Bft)
23.01.2018 08:00 22,6 C 2,2 C 65 % 97 % 1023,7 hPa 0,0 l/m 2,3 km/h (1 Bft) W-SW 0,00 h 0,0 UV-I 9 W/m 1,7 C 2,2 C 5,5 km/h (1 Bft)
23.01.2018 09:00 22,7 C 2,3 C 64 % 97 % 1024,7 hPa 0,0 l/m 2,0 km/h (1 Bft) W-SW 0,00 h 0,0 UV-I 25 W/m 1,9 C 2,3 C 5,1 km/h (1 Bft)
23.01.2018 10:00 22,7 C 2,5 C 64 % 97 % 1025,6 hPa 0,0 l/m 2,4 km/h (1 Bft) W-SW 0,00 h 0,0 UV-I 27 W/m 2,1 C 2,5 C 6,0 km/h (2 Bft)
23.01.2018 11:00 22,8 C 2,6 C 64 % 97 % 1026,2 hPa 0,0 l/m 2,3 km/h (1 Bft) W-SW 0,00 h 0,5 UV-I 43 W/m 2,2 C 2,6 C 5,5 km/h (1 Bft)
23.01.2018 12:00 22,8 C 2,9 C 64 % 97 % 1026,3 hPa 0,0 l/m 3,0 km/h (1 Bft) W-SW 0,00 h 0,5 UV-I 61 W/m 2,4 C 2,8 C 7,0 km/h (2 Bft)
23.01.2018 13:00 22,8 C 3,2 C 63 % 97 % 1026,2 hPa 0,0 l/m 2,7 km/h (1 Bft) W-SW 0,00 h 0,5 UV-I 72 W/m 2,7 C 3,1 C 6,9 km/h (2 Bft)
23.01.2018 14:00 22,9 C 3,4 C 63 % 96 % 1026,0 hPa 0,0 l/m 3,4 km/h (1 Bft) W-SW 0,00 h 0,5 UV-I 58 W/m 2,8 C 3,2 C 7,8 km/h (2 Bft)
23.01.2018 15:00 22,9 C 3,4 C 63 % 96 % 1026,2 hPa 0,0 l/m 2,5 km/h (1 Bft) SW 0,00 h 0,0 UV-I 41 W/m 2,8 C 3,4 C 5,8 km/h (2 Bft)
23.01.2018 16:00 22,9 C 3,2 C 63 % 96 % 1026,4 hPa 0,0 l/m 1,3 km/h (1 Bft) SW 0,00 h 0,0 UV-I 9 W/m 2,6 C 3,2 C 3,6 km/h (1 Bft)
23.01.2018 17:00 22,9 C 2,8 C 64 % 96 % 1026,5 hPa 0,0 l/m 0,7 km/h (0 Bft) S 0,00 h 0,0 UV-I 0 W/m 2,2 C 2,8 C 2,1 km/h (1 Bft)
23.01.2018 18:00 22,8 C 2,7 C 63 % 96 % 1026,7 hPa 0,0 l/m 2,7 km/h (1 Bft) S 0,00 h 0,0 UV-I 0 W/m 2,1 C 2,7 C 6,2 km/h (2 Bft)
23.01.2018 19:00 22,7 C 2,7 C 63 % 96 % 1026,4 hPa 0,0 l/m 5,4 km/h (1 Bft) S 0,00 h 0,0 UV-I 0 W/m 2,2 C 2,6 C 9,6 km/h (2 Bft)
23.01.2018 20:00 22,8 C 2,8 C 63 % 96 % 1026,2 hPa 0,0 l/m 4,1 km/h (1 Bft) S 0,00 h 0,0 UV-I 0 W/m 2,2 C 2,7 C 7,8 km/h (2 Bft)
23.01.2018 21:00 22,8 C 2,9 C 63 % 95 % 1026,0 hPa 0,0 l/m 6,1 km/h (2 Bft) S 0,00 h 0,0 UV-I 0 W/m 2,2 C 2,3 C 10,9 km/h (2 Bft)
23.01.2018 22:00 22,8 C 3,2 C 63 % 93 % 1025,8 hPa 0,0 l/m 7,5 km/h (2 Bft) S-SO 0,00 h 0,0 UV-I 0 W/m 2,2 C 1,7 C 12,8 km/h (3 Bft)
23.01.2018 23:00 22,8 C 3,1 C 63 % 93 % 1025,9 hPa 0,0 l/m 8,1 km/h (2 Bft) S 0,00 h 0,0 UV-I 0 W/m 2,1 C 1,4 C 13,5 km/h (3 Bft)
24.01.2018 00:00 22,6 C 3,2 C 64 % 93 % 1025,8 hPa 0,0 l/m 5,0 km/h (1 Bft) S 0,00 h 0,0 UV-I 0 W/m 2,2 C 2,9 C 9,8 km/h (2 Bft)
24.01.2018 01:00 22,4 C 3,4 C 64 % 92 % 1025,4 hPa 0,0 l/m 7,4 km/h (2 Bft) S 0,00 h 0,0 UV-I 0 W/m 2,2 C 1,7 C 13,1 km/h (3 Bft)
24.01.2018 02:00 22,4 C 3,4 C 64 % 92 % 1025,3 hPa 0,0 l/m 7,1 km/h (2 Bft) S 0,00 h 0,0 UV-I 0 W/m 2,2 C 2,1 C 12,6 km/h (3 Bft)
24.01.2018 03:00 22,4 C 3,1 C 65 % 94 % 1025,5 hPa 0,0 l/m 4,5 km/h (1 Bft) S 0,00 h 0,0 UV-I 0 W/m 2,3 C 2,7 C 8,8 km/h (2 Bft)
24.01.2018 04:00 22,3 C 3,2 C 64 % 95 % 1025,3 hPa 0,0 l/m 6,5 km/h (2 Bft) S 0,00 h 0,0 UV-I 0 W/m 2,5 C 2,4 C 12,0 km/h (2 Bft)
24.01.2018 05:00 22,3 C 3,1 C 64 % 95 % 1025,3 hPa 0,0 l/m 4,9 km/h (1 Bft) S 0,00 h 0,0 UV-I 0 W/m 2,4 C 2,9 C 9,9 km/h (2 Bft)
24.01.2018 06:00 22,5 C 3,2 C 64 % 96 % 1025,4 hPa 0,0 l/m 4,4 km/h (1 Bft) SW 0,00 h 0,0 UV-I 0 W/m 2,6 C 3,0 C 9,3 km/h (2 Bft)
24.01.2018 07:00 22,6 C 3,2 C 63 % 96 % 1025,5 hPa 0,0 l/m 1,6 km/h (1 Bft) S-SW 0,00 h 0,0 UV-I 0 W/m 2,7 C 3,2 C 3,9 km/h (1 Bft)
24.01.2018 08:00 22,7 C 3,4 C 63 % 97 % 1025,5 hPa 0,0 l/m 0,9 km/h (0 Bft) S 0,00 h 0,0 UV-I 10 W/m 3,0 C 3,4 C 2,4 km/h (1 Bft)
24.01.2018 09:00 22,7 C 3,6 C 63 % 97 % 1025,5 hPa 0,0 l/m 1,3 km/h (1 Bft) S 0,00 h 0,0 UV-I 27 W/m 3,2 C 3,6 C 3,5 km/h (1 Bft)
24.01.2018 10:00 22,8 C 3,8 C 63 % 97 % 1025,6 hPa 0,2 l/m 1,1 km/h (1 Bft) S 0,00 h 0,0 UV-I 40 W/m 3,4 C 3,8 C 3,4 km/h (1 Bft)
24.01.2018 11:00 22,9 C 4,3 C 62 % 97 % 1025,3 hPa 0,0 l/m 2,1 km/h (1 Bft) S 0,00 h 0,5 UV-I 73 W/m 3,9 C 4,2 C 5,0 km/h (1 Bft)
24.01.2018 12:00 23,1 C 4,8 C 63 % 98 % 1024,7 hPa 0,0 l/m 1,6 km/h (1 Bft) S 0,02 h 0,6 UV-I 78 W/m 4,5 C 4,8 C 3,8 km/h (1 Bft)
24.01.2018 13:00 23,1 C 5,4 C 62 % 98 % 1023,9 hPa 0,0 l/m 3,9 km/h (1 Bft) S 0,00 h 0,6 UV-I 102 W/m 5,1 C 5,1 C 7,7 km/h (2 Bft)
24.01.2018 14:00 23,1 C 5,5 C 60 % 97 % 1023,3 hPa 0,0 l/m 5,5 km/h (1 Bft) S-SO 0,00 h 0,5 UV-I 74 W/m 5,1 C 4,9 C 9,2 km/h (2 Bft)
24.01.2018 15:00 22,9 C 5,1 C 59 % 97 % 1022,9 hPa 0,0 l/m 7,1 km/h (2 Bft) S-SO 0,00 h 0,0 UV-I 38 W/m 4,7 C 3,8 C 11,6 km/h (2 Bft)
24.01.2018 16:00 22,8 C 5,1 C 59 % 97 % 1022,4 hPa 0,0 l/m 1,9 km/h (1 Bft) S 0,00 h 0,0 UV-I 13 W/m 4,6 C 5,0 C 4,1 km/h (1 Bft)
24.01.2018 17:00 22,9 C 4,6 C 59 % 97 % 1021,6 hPa 0,0 l/m 0,0 km/h (0 Bft) N 0,00 h 0,0 UV-I 0 W/m 4,1 C 4,6 C 0,0 km/h (0 Bft)
24.01.2018 18:00 23,1 C 4,0 C 61 % 96 % 1020,9 hPa 0,0 l/m 0,0 km/h (0 Bft) N 0,00 h 0,0 UV-I 0 W/m 3,5 C 4,0 C 0,0 km/h (0 Bft)
24.01.2018 19:00 23,2 C 4,0 C 61 % 96 % 1020,3 hPa 0,0 l/m 0,0 km/h (0 Bft) N 0,00 h 0,0 UV-I 0 W/m 3,4 C 4,0 C 0,0 km/h (0 Bft)
24.01.2018 20:00 23,3 C 3,8 C 62 % 94 % 1020,0 hPa 0,0 l/m 0,0 km/h (0 Bft) N 0,00 h 0,0 UV-I 0 W/m 3,0 C 3,8 C 0,0 km/h (0 Bft)
24.01.2018 21:00 23,4 C 3,2 C 62 % 94 % 1019,6 hPa 0,0 l/m 0,0 km/h (0 Bft) N 0,00 h 0,0 UV-I 0 W/m 2,4 C 3,2 C 0,0 km/h (0 Bft)
24.01.2018 22:00 23,3 C 2,8 C 62 % 95 % 1019,3 hPa 0,0 l/m 0,0 km/h (0 Bft) N 0,00 h 0,0 UV-I 0 W/m 2,1 C 2,8 C 0,0 km/h (0 Bft)
24.01.2018 23:00 23,3 C 2,7 C 62 % 95 % 1019,2 hPa 0,0 l/m 0,0 km/h (0 Bft) N 0,00 h 0,0 UV-I 0 W/m 2,0 C 2,7 C 0,0 km/h (0 Bft)
25.01.2018 00:00 23,1 C 2,9 C 63 % 96 % 1019,3 hPa 0,0 l/m 0,0 km/h (0 Bft) SW 0,00 h 0,0 UV-I 0 W/m 2,4 C 2,9 C 0,3 km/h (0 Bft)
25.01.2018 01:00 22,8 C 3,8 C 64 % 95 % 1018,9 hPa 0,0 l/m 1,0 km/h (0 Bft) S-SW 0,00 h 0,0 UV-I 0 W/m 3,1 C 3,8 C 4,0 km/h (1 Bft)
25.01.2018 02:00 22,8 C 4,1 C 64 % 91 % 1018,9 hPa 0,0 l/m 0,6 km/h (0 Bft) W-SW 0,00 h 0,0 UV-I 0 W/m 2,8 C 4,1 C 2,5 km/h (1 Bft)
25.01.2018 03:00 22,8 C 3,1 C 64 % 92 % 1018,9 hPa 0,0 l/m 1,2 km/h (1 Bft) NW 0,00 h 0,0 UV-I 0 W/m 1,9 C 3,1 C 3,1 km/h (1 Bft)
25.01.2018 04:00 22,8 C 2,2 C 64 % 94 % 1018,8 hPa 0,0 l/m 0,9 km/h (0 Bft) NW 0,00 h 0,0 UV-I 0 W/m 1,2 C 2,2 C 2,9 km/h (1 Bft)
25.01.2018 05:00 22,6 C 1,8 C 63 % 95 % 1019,0 hPa 0,0 l/m 0,2 km/h (0 Bft) N-NW 0,00 h 0,0 UV-I 0 W/m 1,1 C 1,8 C 0,4 km/h (0 Bft)
25.01.2018 06:00 22,6 C 1,9 C 63 % 96 % 1019,1 hPa 0,0 l/m 0,5 km/h (0 Bft) N-NW 0,00 h 0,0 UV-I 0 W/m 1,3 C 1,9 C 0,8 km/h (0 Bft)
25.01.2018 07:00 22,8 C 2,4 C 62 % 96 % 1019,2 hPa 0,0 l/m 0,0 km/h (0 Bft) N 0,00 h 0,0 UV-I 0 W/m 1,8 C 2,4 C 0,0 km/h (0 Bft)
25.01.2018 08:00 22,9 C 2,8 C 62 % 96 % 1019,3 hPa 0,0 l/m 0,0 km/h (0 Bft) N 0,00 h 0,0 UV-I 20 W/m 2,2 C 2,8 C 0,0 km/h (0 Bft)
25.01.2018 09:00 23,0 C 3,8 C 61 % 96 % 1019,0 hPa 0,0 l/m 0,0 km/h (0 Bft) N 0,10 h 0,5 UV-I 87 W/m 3,2 C 3,8 C 0,0 km/h (0 Bft)
25.01.2018 10:00 23,2 C 5,1 C 61 % 93 % 1018,9 hPa 0,0 l/m 0,0 km/h (0 Bft) N 0,00 h 0,6 UV-I 109 W/m 4,1 C 5,1 C 0,0 km/h (0 Bft)
25.01.2018 11:00 23,3 C 6,5 C 61 % 87 % 1018,7 hPa 0,0 l/m 0,0 km/h (0 Bft) S 0,05 h 0,7 UV-I 131 W/m 4,5 C 6,5 C 0,2 km/h (0 Bft)
25.01.2018 12:00 23,3 C 7,4 C 60 % 81 % 1018,1 hPa 0,0 l/m 0,1 km/h (0 Bft) S 0,22 h 0,7 UV-I 141 W/m 4,5 C 7,4 C 0,2 km/h (0 Bft)
25.01.2018 13:00 23,4 C 7,9 C 60 % 79 % 1017,4 hPa 0,0 l/m 0,1 km/h (0 Bft) S-SO 0,33 h 0,7 UV-I 140 W/m 4,5 C 7,9 C 0,8 km/h (0 Bft)
25.01.2018 14:00 23,5 C 8,3 C 60 % 77 % 1016,7 hPa 0,0 l/m 0,0 km/h (0 Bft) N 0,03 h 0,6 UV-I 119 W/m 4,6 C 8,3 C 0,0 km/h (0 Bft)
25.01.2018 15:00 23,5 C 8,1 C 60 % 78 % 1016,5 hPa 0,0 l/m 0,0 km/h (0 Bft) N 0,00 h 0,0 UV-I 67 W/m 4,4 C 8,1 C 0,0 km/h (0 Bft)
25.01.2018 16:00 23,4 C 7,6 C 60 % 79 % 1016,2 hPa 0,0 l/m 0,0 km/h (0 Bft) N 0,00 h 0,0 UV-I 20 W/m 4,2 C 7,6 C 0,0 km/h (0 Bft)
25.01.2018 17:00 23,4 C 6,3 C 61 % 83 % 1016,1 hPa 0,0 l/m 0,0 km/h (0 Bft) N 0,00 h 0,0 UV-I 0 W/m 3,7 C 6,3 C 0,0 km/h (0 Bft)
25.01.2018 18:00 23,3 C 4,8 C 62 % 87 % 1016,4 hPa 0,0 l/m 0,0 km/h (0 Bft) N 0,00 h 0,0 UV-I 0 W/m 2,9 C 4,8 C 0,0 km/h (0 Bft)
25.01.2018 19:00 23,3 C 3,6 C 62 % 89 % 1016,5 hPa 0,0 l/m 0,0 km/h (0 Bft) N 0,00 h 0,0 UV-I 0 W/m 2,0 C 3,6 C 0,0 km/h (0 Bft)
25.01.2018 20:00 23,3 C 2,7 C 63 % 91 % 1016,5 hPa 0,0 l/m 0,0 km/h (0 Bft) N 0,00 h 0,0 UV-I 0 W/m 1,3 C 2,7 C 0,0 km/h (0 Bft)
25.01.2018 21:00 23,4 C 2,0 C 64 % 92 % 1016,3 hPa 0,0 l/m 0,0 km/h (0 Bft) N 0,00 h 0,0 UV-I 0 W/m 0,9 C 2,0 C 0,0 km/h (0 Bft)
25.01.2018 22:00 23,4 C 1,4 C 64 % 93 % 1016,2 hPa 0,0 l/m 0,0 km/h (0 Bft) N 0,00 h 0,0 UV-I 0 W/m 0,4 C 1,4 C 0,0 km/h (0 Bft)
25.01.2018 23:00 23,4 C 1,2 C 64 % 94 % 1016,2 hPa 0,0 l/m 0,0 km/h (0 Bft) N 0,00 h 0,0 UV-I 0 W/m 0,3 C 1,2 C 0,0 km/h (0 Bft)
26.01.2018 00:00 23,2 C 1,1 C 65 % 95 % 1016,2 hPa 0,0 l/m 0,0 km/h (0 Bft) N 0,00 h 0,0 UV-I 0 W/m 0,4 C 1,1 C 0,0 km/h (0 Bft)
26.01.2018 01:00 23,1 C 1,2 C 65 % 95 % 1015,9 hPa 0,0 l/m 0,0 km/h (0 Bft) N 0,00 h 0,0 UV-I 0 W/m 0,5 C 1,2 C 0,0 km/h (0 Bft)
26.01.2018 02:00 22,9 C 1,2 C 65 % 96 % 1016,0 hPa 0,0 l/m 0,0 km/h (0 Bft) N 0,00 h 0,0 UV-I 0 W/m 0,6 C 1,2 C 0,0 km/h (0 Bft)
26.01.2018 03:00 22,9 C 1,2 C 65 % 96 % 1015,7 hPa 0,0 l/m 0,0 km/h (0 Bft) N 0,00 h 0,0 UV-I 0 W/m 0,6 C 1,2 C 0,0 km/h (0 Bft)
26.01.2018 04:00 22,8 C 1,3 C 65 % 96 % 1015,7 hPa 0,0 l/m 0,0 km/h (0 Bft) N 0,00 h 0,0 UV-I 0 W/m 0,7 C 1,3 C 0,0 km/h (0 Bft)
26.01.2018 05:00 22,7 C 0,9 C 65 % 96 % 1015,9 hPa 0,0 l/m 0,0 km/h (0 Bft) N 0,00 h 0,0 UV-I 0 W/m 0,4 C 0,9 C 0,0 km/h (0 Bft)
26.01.2018 06:00 22,7 C 1,0 C 65 % 96 % 1015,9 hPa 0,0 l/m 0,0 km/h (0 Bft) N 0,00 h 0,0 UV-I 0 W/m 0,4 C 1,0 C 0,0 km/h (0 Bft)
26.01.2018 07:00 22,8 C 0,6 C 65 % 96 % 1016,5 hPa 0,0 l/m 0,0 km/h (0 Bft) N 0,00 h 0,0 UV-I 0 W/m 0,1 C 0,6 C 0,0 km/h (0 Bft)
26.01.2018 08:00 23,1 C 0,4 C 65 % 96 % 1017,0 hPa 0,0 l/m 0,0 km/h (0 Bft) N 0,00 h 0,0 UV-I 23 W/m -0,1 C 0,4 C 0,0 km/h (0 Bft)
26.01.2018 09:00 23,3 C 1,1 C 64 % 97 % 1017,4 hPa 0,0 l/m 0,0 km/h (0 Bft) N 0,00 h 0,5 UV-I 91 W/m 0,7 C 1,1 C 0,0 km/h (0 Bft)
26.01.2018 10:00 23,6 C 2,9 C 63 % 96 % 1017,7 hPa 0,0 l/m 0,0 km/h (0 Bft) N 0,23 h 0,6 UV-I 144 W/m 2,4 C 2,9 C 0,0 km/h (0 Bft)
26.01.2018 11:00 23,7 C 4,6 C 62 % 91 % 1018,0 hPa 0,0 l/m 0,0 km/h (0 Bft) N 0,38 h 0,7 UV-I 143 W/m 3,3 C 4,6 C 0,0 km/h (0 Bft)
26.01.2018 12:00 23,7 C 5,3 C 62 % 88 % 1018,2 hPa 0,0 l/m 0,0 km/h (0 Bft) N 0,37 h 0,7 UV-I 151 W/m 3,5 C 5,3 C 0,0 km/h (0 Bft)
26.01.2018 13:00 23,8 C 5,9 C 62 % 87 % 1018,2 hPa 0,0 l/m 0,0 km/h (0 Bft) N 0,48 h 0,7 UV-I 194 W/m 3,9 C 5,9 C 0,0 km/h (0 Bft)
26.01.2018 14:00 24,1 C 7,4 C 61 % 81 % 1018,5 hPa 0,0 l/m 0,0 km/h (0 Bft) N 0,85 h 0,6 UV-I 213 W/m 4,5 C 7,4 C 0,0 km/h (0 Bft)
26.01.2018 15:00 24,1 C 7,9 C 61 % 79 % 1018,9 hPa 0,0 l/m 0,0 km/h (0 Bft) N 0,18 h 0,5 UV-I 107 W/m 4,5 C 7,9 C 0,0 km/h (0 Bft)
26.01.2018 16:00 23,9 C 7,3 C 61 % 79 % 1019,5 hPa 0,0 l/m 0,0 km/h (0 Bft) N 0,00 h 0,0 UV-I 21 W/m 3,8 C 7,3 C 0,0 km/h (0 Bft)
26.01.2018 17:00 23,8 C 5,1 C 61 % 83 % 1020,5 hPa 0,0 l/m 0,0 km/h (0 Bft) N 0,00 h 0,0 UV-I 0 W/m 2,5 C 5,1 C 0,0 km/h (0 Bft)
26.01.2018 18:00 23,6 C 3,2 C 62 % 88 % 1021,2 hPa 0,0 l/m 0,0 km/h (0 Bft) N 0,00 h 0,0 UV-I 0 W/m 1,4 C 3,2 C 0,0 km/h (0 Bft)
26.01.2018 19:00 23,5 C 2,7 C 63 % 90 % 1021,9 hPa 0,0 l/m 0,0 km/h (0 Bft) N 0,00 h 0,0 UV-I 0 W/m 1,3 C 2,7 C 0,0 km/h (0 Bft)
26.01.2018 20:00 23,5 C 2,5 C 63 % 91 % 1022,4 hPa 0,0 l/m 0,0 km/h (0 Bft) N 0,00 h 0,0 UV-I 0 W/m 1,2 C 2,5 C 0,0 km/h (0 Bft)
26.01.2018 21:00 23,5 C 2,4 C 63 % 92 % 1022,8 hPa 0,0 l/m 0,0 km/h (0 Bft) N 0,00 h 0,0 UV-I 0 W/m 1,2 C 2,4 C 0,0 km/h (0 Bft)
26.01.2018 22:00 23,6 C 2,6 C 64 % 94 % 1023,8 hPa 0,0 l/m 0,1 km/h (0 Bft) N 0,00 h 0,0 UV-I 0 W/m 1,6 C 2,6 C 0,3 km/h (0 Bft)
26.01.2018 23:00 23,5 C 2,5 C 64 % 94 % 1024,5 hPa 0,2 l/m 0,0 km/h (0 Bft) N 0,00 h 0,0 UV-I 0 W/m 1,7 C 2,5 C 0,0 km/h (0 Bft)
27.01.2018 00:00 23,2 C 2,3 C 64 % 94 % 1025,1 hPa 0,0 l/m 0,0 km/h (0 Bft) N 0,00 h 0,0 UV-I 0 W/m 1,5 C 2,3 C 0,0 km/h (0 Bft)
27.01.2018 01:00 22,9 C 2,0 C 65 % 94 % 1025,5 hPa 0,0 l/m 0,0 km/h (0 Bft) N 0,00 h 0,0 UV-I 0 W/m 1,2 C 2,0 C 0,0 km/h (0 Bft)
27.01.2018 02:00 22,9 C 2,0 C 65 % 95 % 1025,8 hPa 0,0 l/m 0,0 km/h (0 Bft) N 0,00 h 0,0 UV-I 0 W/m 1,3 C 2,0 C 0,0 km/h (0 Bft)
27.01.2018 03:00 22,9 C 2,2 C 65 % 95 % 1026,3 hPa 0,0 l/m 0,0 km/h (0 Bft) N 0,00 h 0,0 UV-I 0 W/m 1,5 C 2,2 C 0,0 km/h (0 Bft)
27.01.2018 04:00 22,8 C 2,3 C 66 % 96 % 1026,6 hPa 0,0 l/m 0,0 km/h (0 Bft) N 0,00 h 0,0 UV-I 0 W/m 1,7 C 2,3 C 0,0 km/h (0 Bft)
27.01.2018 05:00 22,8 C 2,3 C 67 % 96 % 1027,5 hPa 0,0 l/m 0,0 km/h (0 Bft) N 0,00 h 0,0 UV-I 0 W/m 1,7 C 2,3 C 0,0 km/h (0 Bft)
27.01.2018 06:00 23,2 C 2,5 C 66 % 96 % 1028,4 hPa 0,2 l/m 0,0 km/h (0 Bft) N 0,00 h 0,0 UV-I 0 W/m 2,0 C 2,5 C 0,0 km/h (0 Bft)
27.01.2018 07:00 23,3 C 2,7 C 65 % 96 % 1029,2 hPa 0,2 l/m 0,0 km/h (0 Bft) N 0,00 h 0,0 UV-I 0 W/m 2,2 C 2,7 C 0,0 km/h (0 Bft)
27.01.2018 08:00 23,3 C 2,9 C 65 % 96 % 1030,0 hPa 0,4 l/m 0,0 km/h (0 Bft) N 0,00 h 0,0 UV-I 11 W/m 2,3 C 2,9 C 0,0 km/h (0 Bft)
27.01.2018 09:00 23,3 C 3,2 C 65 % 97 % 1030,4 hPa 0,0 l/m 0,0 km/h (0 Bft) N 0,00 h 0,5 UV-I 55 W/m 2,8 C 3,2 C 0,0 km/h (0 Bft)
27.01.2018 10:00 23,7 C 4,4 C 64 % 97 % 1030,9 hPa 0,0 l/m 0,0 km/h (0 Bft) N 0,25 h 0,5 UV-I 128 W/m 4,0 C 4,4 C 0,0 km/h (0 Bft)
27.01.2018 11:00 23,7 C 4,7 C 64 % 97 % 1031,2 hPa 0,0 l/m 0,0 km/h (0 Bft) NW 0,00 h 0,5 UV-I 89 W/m 4,2 C 4,7 C 0,4 km/h (0 Bft)
27.01.2018 12:00 23,8 C 5,0 C 65 % 96 % 1031,6 hPa 0,0 l/m 0,5 km/h (0 Bft) N-NW 0,00 h 0,5 UV-I 75 W/m 4,4 C 5,0 C 1,8 km/h (1 Bft)
27.01.2018 13:00 23,7 C 5,1 C 65 % 94 % 1031,9 hPa 0,0 l/m 0,0 km/h (0 Bft) N 0,00 h 0,5 UV-I 52 W/m 4,3 C 5,1 C 0,0 km/h (0 Bft)
27.01.2018 14:00 23,7 C 5,1 C 64 % 93 % 1031,7 hPa 0,0 l/m 0,0 km/h (0 Bft) N 0,00 h 0,0 UV-I 31 W/m 4,1 C 5,1 C 0,0 km/h (0 Bft)
27.01.2018 15:00 23,7 C 4,9 C 64 % 94 % 1031,8 hPa 0,0 l/m 0,0 km/h (0 Bft) N 0,00 h 0,0 UV-I 27 W/m 4,0 C 4,9 C 0,0 km/h (0 Bft)
27.01.2018 16:00 23,7 C 4,8 C 63 % 94 % 1032,4 hPa 0,0 l/m 0,0 km/h (0 Bft) N 0,00 h 0,0 UV-I 9 W/m 4,0 C 4,8 C 0,0 km/h (0 Bft)
27.01.2018 17:00 23,6 C 4,5 C 62 % 94 % 1033,0 hPa 0,0 l/m 0,0 km/h (0 Bft) N 0,00 h 0,0 UV-I 0 W/m 3,6 C 4,5 C 0,2 km/h (0 Bft)
27.01.2018 18:00 23,5 C 4,3 C 62 % 95 % 1033,6 hPa 0,0 l/m 0,0 km/h (0 Bft) N 0,00 h 0,0 UV-I 0 W/m 3,5 C 4,3 C 0,2 km/h (0 Bft)
27.01.2018 19:00 23,4 C 4,1 C 61 % 95 % 1033,5 hPa 0,0 l/m 1,0 km/h (0 Bft) S 0,00 h 0,0 UV-I 0 W/m 3,4 C 4,1 C 2,5 km/h (1 Bft)
27.01.2018 20:00 23,4 C 3,8 C 61 % 95 % 1033,5 hPa 0,0 l/m 3,0 km/h (1 Bft) S-SO 0,00 h 0,0 UV-I 0 W/m 3,2 C 3,8 C 6,0 km/h (2 Bft)
27.01.2018 21:00 23,3 C 3,4 C 61 % 95 % 1033,6 hPa 0,0 l/m 3,8 km/h (1 Bft) S 0,00 h 0,0 UV-I 0 W/m 2,7 C 3,2 C 7,4 km/h (2 Bft)
27.01.2018 22:00 23,4 C 3,3 C 61 % 96 % 1033,2 hPa 0,0 l/m 4,3 km/h (1 Bft) S 0,00 h 0,0 UV-I 0 W/m 2,7 C 3,1 C 8,3 km/h (2 Bft)
27.01.2018 23:00 23,4 C 3,0 C 61 % 96 % 1033,0 hPa 0,0 l/m 4,0 km/h (1 Bft) S 0,00 h 0,0 UV-I 0 W/m 2,4 C 2,8 C 8,5 km/h (2 Bft)
28.01.2018 00:00 23,1 C 2,8 C 61 % 96 % 1032,9 hPa 0,0 l/m 4,4 km/h (1 Bft) S 0,00 h 0,0 UV-I 0 W/m 2,3 C 2,5 C 9,3 km/h (2 Bft)
28.01.2018 01:00 22,7 C 2,6 C 62 % 96 % 1032,5 hPa 0,0 l/m 4,4 km/h (1 Bft) S 0,00 h 0,0 UV-I 0 W/m 2,0 C 2,4 C 10,0 km/h (2 Bft)
28.01.2018 02:00 22,7 C 2,6 C 62 % 96 % 1032,4 hPa 0,0 l/m 4,6 km/h (1 Bft) S 0,00 h 0,0 UV-I 0 W/m 2,1 C 2,3 C 9,7 km/h (2 Bft)
28.01.2018 03:00 22,7 C 2,8 C 63 % 97 % 1031,6 hPa 0,0 l/m 3,9 km/h (1 Bft) S 0,00 h 0,0 UV-I 0 W/m 2,3 C 2,7 C 8,9 km/h (2 Bft)
28.01.2018 04:00 22,7 C 3,0 C 62 % 97 % 1031,1 hPa 0,0 l/m 4,9 km/h (1 Bft) S 0,00 h 0,0 UV-I 0 W/m 2,6 C 2,8 C 10,2 km/h (2 Bft)
28.01.2018 05:00 22,7 C 3,6 C 62 % 96 % 1030,8 hPa 0,0 l/m 7,4 km/h (2 Bft) SW 0,00 h 0,0 UV-I 0 W/m 3,0 C 2,1 C 14,4 km/h (3 Bft)
28.01.2018 06:00 23,0 C 4,0 C 62 % 93 % 1030,9 hPa 0,0 l/m 6,3 km/h (2 Bft) SW 0,00 h 0,0 UV-I 0 W/m 3,0 C 3,0 C 13,0 km/h (3 Bft)
28.01.2018 07:00 23,2 C 4,1 C 61 % 93 % 1031,0 hPa 0,0 l/m 8,2 km/h (2 Bft) SW 0,00 h 0,0 UV-I 0 W/m 3,0 C 2,1 C 15,8 km/h (3 Bft)
28.01.2018 08:00 23,2 C 4,0 C 61 % 94 % 1031,5 hPa 0,0 l/m 7,6 km/h (2 Bft) W-SW 0,00 h 0,0 UV-I 8 W/m 3,1 C 2,4 C 14,5 km/h (3 Bft)
28.01.2018 09:00 23,4 C 4,1 C 62 % 94 % 1031,9 hPa 0,0 l/m 4,9 km/h (1 Bft) SW 0,00 h 0,0 UV-I 15 W/m 3,2 C 3,4 C 10,0 km/h (2 Bft)
28.01.2018 10:00 23,5 C 4,2 C 62 % 94 % 1032,6 hPa 0,0 l/m 4,3 km/h (1 Bft) W-SW 0,00 h 0,0 UV-I 19 W/m 3,4 C 3,7 C 9,1 km/h (2 Bft)
28.01.2018 11:00 23,6 C 4,4 C 62 % 95 % 1032,8 hPa 0,0 l/m 6,3 km/h (2 Bft) W-SW 0,00 h 0,0 UV-I 26 W/m 3,6 C 3,5 C 11,2 km/h (2 Bft)
28.01.2018 12:00 23,5 C 4,6 C 61 % 95 % 1032,6 hPa 0,0 l/m 7,2 km/h (2 Bft) SW 0,00 h 0,5 UV-I 34 W/m 3,9 C 3,2 C 12,4 km/h (3 Bft)
28.01.2018 13:00 23,4 C 4,7 C 62 % 96 % 1032,4 hPa 0,0 l/m 4,0 km/h (1 Bft) SW 0,00 h 0,0 UV-I 22 W/m 4,1 C 4,5 C 8,2 km/h (2 Bft)
28.01.2018 14:00 23,4 C 4,8 C 61 % 96 % 1032,1 hPa 0,0 l/m 4,5 km/h (1 Bft) W-SW 0,00 h 0,0 UV-I 21 W/m 4,2 C 4,5 C 9,8 km/h (2 Bft)
28.01.2018 15:00 23,3 C 4,9 C 61 % 96 % 1032,3 hPa 0,0 l/m 6,2 km/h (2 Bft) W-SW 0,00 h 0,0 UV-I 14 W/m 4,3 C 3,9 C 11,6 km/h (2 Bft)
28.01.2018 16:00 23,3 C 5,0 C 61 % 95 % 1032,2 hPa 0,0 l/m 6,8 km/h (2 Bft) W-SW 0,00 h 0,0 UV-I 5 W/m 4,3 C 4,0 C 12,4 km/h (3 Bft)
28.01.2018 17:00 23,3 C 5,1 C 60 % 96 % 1032,4 hPa 0,2 l/m 9,4 km/h (2 Bft) W-SW 0,00 h 0,0 UV-I 0 W/m 4,5 C 2,5 C 16,0 km/h (3 Bft)
28.01.2018 18:00 23,5 C 5,3 C 63 % 94 % 1032,7 hPa 0,0 l/m 10,6 km/h (2 Bft) W-SW 0,00 h 0,0 UV-I 0 W/m 4,5 C 2,0 C 17,7 km/h (3 Bft)
28.01.2018 19:00 23,5 C 5,4 C 64 % 92 % 1033,0 hPa 0,0 l/m 4,3 km/h (1 Bft) S-SW 0,00 h 0,0 UV-I 0 W/m 4,3 C 5,2 C 9,0 km/h (2 Bft)
28.01.2018 20:00 23,4 C 5,4 C 64 % 92 % 1033,0 hPa 0,0 l/m 6,0 km/h (2 Bft) S-SW 0,00 h 0,0 UV-I 0 W/m 4,2 C 4,8 C 11,7 km/h (2 Bft)
28.01.2018 21:00 23,5 C 5,6 C 64 % 91 % 1033,1 hPa 0,0 l/m 8,9 km/h (2 Bft) W-SW 0,00 h 0,0 UV-I 0 W/m 4,2 C 3,2 C 15,8 km/h (3 Bft)
28.01.2018 22:00 23,6 C 5,6 C 63 % 91 % 1032,7 hPa 0,0 l/m 11,0 km/h (2 Bft) W-SW 0,00 h 0,0 UV-I 0 W/m 4,2 C 2,1 C 18,0 km/h (3 Bft)
28.01.2018 23:00 23,5 C 5,3 C 64 % 94 % 1032,2 hPa 0,0 l/m 10,0 km/h (2 Bft) SW 0,00 h 0,0 UV-I 0 W/m 4,4 C 2,5 C 17,1 km/h (3 Bft)
Min-Datum _ 22.01.18 22.01.18 24.01.18 25.01.18 22.01.18 - 22.01.18 - - - - 22.01.18 22.01.18 22.01.18
_ Min-Zeit 06:38 01:04 16:52 13:44 13:20 - 00:00 - - - - 00:56 11:08 00:00
Minimum _ 21,9 C -5,2 C 57 % 77 % 1010,1 hPa - 0,0 km/h (0 Bft) - - - - -6,1 C -7,6 C 0,0 km/h (0 Bft)
Max-Datum _ 26.01.18 25.01.18 27.01.18 24.01.18 27.01.18 27.01.18 28.01.18 - 26.01.18 22.01.18 26.01.18 24.01.18 25.01.18 28.01.18
_ Max-Zeit 14:54 14:32 04:53 11:32 21:36 08:02 17:46 - 14:03 12:24 13:54 14:06 14:40 21:36
Maximum _ 24,2 C 8,4 C 67 % 98 % 1033,9 hPa 0,4 l/m 20,9 km/h
W-SW (4 Bft)
- 0,03 h 0,9 UV-I 378 W/m 5,4 C 8,4 C 32,2 km/h
SW (5 Bft)
Durchschnitt _ 23,0 C 2,9 C 63 % 94 % 1022,8 hPa #1,8 l/m 2,3 km/h (1 Bft) S #3:48 h 0,6 UV-I 62 W/m 2,0 C 2,6 C 4,6 km/h (1 Bft)